Starlink 3556

operational
NORAD ID: 51877 Int'l Des: 2022-022 Owner: SPXS Country: US Constellation: starlink
LEOCIRCULAR

About Starlink 3556

Description loading...

Live Position

Loading 3D Globe...

Upcoming Passes

Altitude History

Altitude vs Time

uPlot chart will show altitude changes over time

Two-Line Element Set

1 51877U 22022AB 26062.16428348 .00000317 00000-0 38009-4 0 9993
2 51877 53.2189 28.4127 0001479 84.5375 275.5786 15.08837571222264
Epoch: Mar 3, 2026 • Age: 29 hours

Current Status

Altitude 549.1 km
Velocity 7.59 km/s
Sub-Earth Point -28.91°S, 119.22°E
Launch Date Mar 3, 2022
Age 4 years
Type internet

Technical Details

Classification Payload
Mass 297.00 kg
Dry Mass 275.00 kg
Total Mass 297.00 kg
Length 0.20 m
Diameter 2.80 m
Span 9.00 m
Shape Box + pan
Manufacturer SPXS
Bus Type Starlink
Phase Status In Orbit
Owner/State SPXS/US

Large Constellations

Loading constellations...